Regional Weather Roundup
Issued by NWS State College, PA

Home | Current Version | Previous Version | Text Only | Print | Product List | Glossary On
Versions: 1 2 3 4 5 6 7 8 9 10 11 12 13 14 15 16 17 18 19 20 21 22 23 24 25 26 27 28 29 30 31 32 33 34 35 36 37 38 39 40 41 42 43 44 45 46 47 48 49 50
000
ASUS41 KCTP 200610
RWRCTP

REGIONAL WEATHER ROUNDUP
NATIONAL WEATHER SERVICE STATE COLLEGE PA
100 AM EST SAT JAN 20 2018

Note: "fair" indicates few or no clouds below 12,000 feet with no
significant weather and/or obstructions to visibility.

* = STATION THAT DOES NOT REPORT PRECIPITATION /E.G. RAIN...SNOW...ETC/
    THUNDER OR FOG.

PAZ002>004-007>009-013>016-020>023-029>032-200700-
WESTERN PENNSYLVANIA

CITY           SKY/WX    TMP DP  RH WIND       PRES   REMARKS
ERIE           FAIR      36  20  52 SW18G29   29.81S
MEADVILLE      FAIR      31  19  61 S15G23    29.84F
FRANKLIN*      FAIR      32  20  61 SW14      29.87F
NEW CASTLE     FAIR      32  20  61 VRB6      29.91F
BEAVER COUNTY  NOT AVBL
BUTLER*        FAIR      33  19  56 SW9       29.93F
PITTSBURGH INT FAIR      37  19  48 SW14      29.94F
PITTSBURGH     FAIR      33  14  45 S12       29.94F
INDIANA*       CLEAR     34  18  51 W14G21    29.97F
LATROBE        FAIR      36  16  44 S18       29.97F
WASHINGTON CO* NOT AVBL
$$

PAZ004>006-010>012-017>019-024>028-033>037-041-042-045-046-049>053-200700-
CENTRAL PENNSYLVANIA

CITY           SKY/WX    TMP DP  RH WIND       PRES   REMARKS
BRADFORD       FAIR      30  18  60 SW10G16   29.81F
DUBOIS         FAIR      31  16  54 SW15G22   29.87F
CLEARFIELD     FAIR      34  18  52 SW16G23   29.89F
JOHNSTOWN      FAIR      36  23  59 SW20G28   29.89F
ALTOONA        FAIR      37  21  52 SW15      29.92F
STATE COLLEGE  FAIR      34  20  55 SW12      29.91S
WILLIAMSPORT   FAIR      24  19  81 E3        29.91S
SELINSGROVE    FAIR      24  19  81 CALM      29.94F
FT INDIANTOWN  FAIR      22  22 100 CALM      29.94F
CAPITAL CITY   FAIR      26  20  77 CALM      29.95F
HARRISBURG     FAIR      26  21  81 CALM      29.95F
YORK           FAIR      41  22  46 VRB7      29.96F
$$

PAZ038>040-043-044-047-048-054-055-060>062-067>071-200700-
EASTERN PENNSYLVANIA

CITY           SKY/WX    TMP DP  RH WIND       PRES   REMARKS
SCRANTON       FAIR      35  21  56 SW9       29.88F
MOUNT POCONO   FAIR      31  19  61 W16       29.83F
ALLENTOWN      FAIR      30  18  60 SW8       29.92F
QUAKERTOWN*    FAIR      19  16  86 MISG      29.94F
READING        FAIR      26  21  81 CALM      29.94F
LANCASTER      FAIR      33  21  61 W3        29.95F
COATESVILLE    FAIR      37  18  44 SW7       29.96F
POTTSTOWN      FAIR      33  18  53 S5        29.96F
BLUE BELL      FAIR      28  21  74 CALM      29.97F
DOYLESTOWN     FAIR      31  17  56 VRB3      29.94F
WILLOW GROVE   NOT AVBL
NORTH PHILA    FAIR      38  18  44 SW6       29.98F
PHILADELPHIA   FAIR      35  18  49 SW12      29.98F
$$




USA.gov is the U.S. government's official web portal to all federal, state and local government web resources and services.